Regional Weather Roundup
Issued by NWS Sterling, VA

Home | Current Version | Previous Version | Text Only | Print | Product List | Glossary Off
Versions: 1 2 3 4 5 6 7 8 9 10 11 12 13 14 15 16 17 18 19 20 21 22 23 24 25 26 27 28 29 30 31 32 33 34 35 36 37 38 39 40 41 42 43 44 45 46 47 48 49 50

000
ASUS41 KLWX 200010
RWRLWX

REGIONAL WEATHER ROUNDUP
NATIONAL WEATHER SERVICE BALTIMORE MD/WASHINGTON DC
700 PM EST FRI DEC 19 2014

Note: "FAIR" indicates few or no clouds below 12,000 feet
with no significant weather and/or obstructions to visibility.
 TC=TEMPERATURE CELSIUS

 * =Non NWS site. Station does not report precipitation (e.g. rain,
    snow, etc.), thunder, or fog.

DCZ001-MDZ009-015-VAZ040>042-051-053>054-200100-
WASHINGTON METRO

CITY           SKY/WX    TMP DP  RH WIND       PRES   REMARKS
WASHINGTON NAT CLEAR     39  22  50 NW10      30.22R
DULLES         CLEAR     30  22  72 W7        30.22R
ANDREWS AFB    CLEAR     36  22  58 NW8       30.20R
FT BELVOIR     CLEAR     35  22  59 W2        30.22R
QUANTICO       CLEAR     35  22  58 N6        30.24R
LEESBURG*      CLEAR     32  27  80 NW5       30.22R
MANASSAS*      CLEAR     34  25  69 SW5       30.22R
GAITHERSBURG*  CLEAR     30  19  64 NW9       30.22R WCI  22

$$

MDZ006>007-011-014-200100-
BALTIMORE METRO

CITY           SKY/WX    TMP DP  RH WIND       PRES   REMARKS
BWI AIRPORT    CLEAR     32  22  66 W7        30.18R
MD SCIENCE CTR   N/A     37  22  54 MISG      30.18R
ANNAPOLIS      CLEAR     37  23  56 W6        30.19R
FORT MEADE*    CLEAR     32  23  69 W3        30.21R

$$

MDZ012-015-019>023-200100-
MARYLAND EASTERN SHORE

CITY           SKY/WX    TMP DP  RH WIND       PRES   REMARKS
OCEAN CITY     CLEAR     34  24  67 CALM      30.18R
SALISBURY      CLEAR     35  24  64 W5        30.19R
BAY BRIDGE AP*   N/A     37  25  60 NW9       30.19R
CAMBRIDGE*     CLEAR     32  27  80 CALM      30.19R
EASTON*        CLEAR     36  28  75 CALM      30.22R

$$

MDZ017>025-200100-
SOUTHERN MARYLAND

CITY           SKY/WX    TMP DP  RH WIND       PRES   REMARKS
PATUXENT RIVER FAIR      31  22  69 W7        30.20R
ST INIGOES     CLEAR     32  22  66 CALM      30.21R
LEONARDTOWN*   CLEAR     32  23  69 W3        30.22R

$$

MDZ003>005-200100-
NORTH CENTRAL MARYLAND

CITY           SKY/WX    TMP DP  RH WIND       PRES   REMARKS
FREDERICK*     NOT AVBL
HAGERSTOWN APT CLEAR     31  20  63 NW8       30.19R WCI  23
WESTMINSTER*   PTCLDY    32  21  64 NW6       30.16R

$$

MDZ501>502-200100-
WESTERN MARYLAND

CITY           SKY/WX    TMP DP  RH WIND       PRES   REMARKS
OAKLAND*       CLOUDY    21 N/A N/A W5        30.14R
CUMBERLAND*    CLOUDY    34  23  64 W5        30.28R

$$

VAZ025>031-200100-
SHENANDOAH VALLEY

CITY           SKY/WX    TMP DP  RH WIND       PRES   REMARKS
WINCHESTER*    CLEAR     32  19  59 W7        30.22R
FRONT ROYAL*   FAIR      30  23  74 CALM      30.22R
LURAY*         FAIR      30  27  86 CALM      30.22R
NEW MARKET*    FAIR      27  21  80 CALM      30.22R
STAUNTON*      CLEAR     30  22  72 NE3       30.21R
WAYNESBORO*    FAIR      30  21  70 CALM      30.18R

$$

WVZ021-048>050-054>055-200100-
EASTERN WEST VIRGINIA PANHANDLE

CITY           SKY/WX    TMP DP  RH WIND       PRES   REMARKS
MARTINSBURG    CLEAR     33  19  56 NW9       30.21R WCI  25
PETERSBURG*    CLOUDY    32  22  67 W6        30.25R

$$

VAZ036>039-050-200100-
CENTRAL FOOTHILLS

CITY           SKY/WX    TMP DP  RH WIND       PRES   REMARKS
CHARLOTTESVILL CLEAR     35  22  58 N3        30.19R
CULPEPER*      CLEAR     34  25  69 N5        30.22R
ORANGE*        CLEAR     32  27  80 CALM      30.21S
GORDONSVILLE*  FAIR      32  23  70 NE3       30.19S
WARRENTON*     FAIR      33  28  80 NW7       30.21R

$$

VAZ055>057-200100-
NORTH AND CENTRAL PIEDMONT

CITY           SKY/WX    TMP DP  RH WIND       PRES   REMARKS
FREDERICKSBRG* CLEAR     37  25  64 NW6       30.21R
STAFFORD*      CLEAR     34  22  61 N10       30.26R WCI  26

$$

NCZ024-NYZ072-PAZ021-071-VAZ022-071-200100-
OTHER REGIONAL OBSERVATIONS

CITY           SKY/WX    TMP DP  RH WIND       PRES   REMARKS
NEW YORK CITY  MOCLDY    32  19  58 VRB5      30.16R
PHILADELPHIA   CLEAR     36  21  54 N12       30.18R WCI  28
PITTSBURGH     CLOUDY    30  22  72 NW7       30.24R
ROANOKE        MOCLDY    39  22  50 CALM      30.19R
RICHMOND       MOCLDY    36  24  62 NE6       30.21R
RALEIGH        CLOUDY    42  29  59 CALM      30.18R

$$

ANZ530>537-200100-
MARINE OBSERVATIONS

STATION/POSITION TIME  TEMP    WIND        PRES
                       AIR SEA DIR/SP/G
                 (UTC) (F)     (DEG/KT/KT) (MB)
THOMAS PT LIGHT  0000   38 41  300/  9/ 11 1023.6R
BALT KEY BRIDGE  0000   38     280/ 12/ 14 1021.9R
COVE POINT       0000   36     320/  9/ 10 1022.5R
LEWISETTA        0000          310/  7/  8 1022.7R
SOLOMONS ISLAND  0000      43                N/A

$$




USA.gov is the U.S. government's official web portal to all federal, state and local government web resources and services.